This is the latest recevied weather packets stored in our database for station/object KA9CBS. If no packets are shown the sender has not sent any weather packets the latest 10 day(s).
| Time | Temp. | Humidity | Pressure | Rain* | Wind** | Luminosity | Snow |
|---|---|---|---|---|---|---|---|
| 1787620197 | 22.78° C | 75% | 1018.9 hPa | 0 mm | - | 0 W/m² | - |
| 1787619892 | 22.78° C | 75% | 1018.9 hPa | 0 mm | - | 0 W/m² | - |
| 1787619587 | 22.22° C | 76% | 1018.6 hPa | 0 mm | - | 0 W/m² | - |
| 1787619283 | 22.78° C | 78% | 1018.6 hPa | 0 mm | - | 0 W/m² | - |
| 1787618977 | 23.33° C | 72% | 1018.4 hPa | 0 mm | - | 0 W/m² | - |
| 1787618672 | 23.33° C | 73% | 1018.1 hPa | 0 mm | - | 0 W/m² | - |
| 1787618370 | 23.33° C | 72% | 1017.9 hPa | 0 mm | - | 0 W/m² | - |
| 1787618066 | 23.33° C | 73% | 1017.7 hPa | 0 mm | - | 1 W/m² | - |
| 1787617765 | 23.33° C | 71% | 1017.8 hPa | 0 mm | - | 1 W/m² | - |
| 1787617466 | 22.78° C | 72% | 1018.1 hPa | 0 mm | - | 3 W/m² | - |
| 1787617160 | 22.22° C | 72% | 1018.3 hPa | 0 mm | - | 4 W/m² | - |
| 1787616854 | 22.22° C | 81% | 1018.2 hPa | 0 mm | - | 3 W/m² | - |
| 1787616554 | 22.22° C | 81% | 1018.3 hPa | 0 mm | - | 3 W/m² | - |
| 1787616253 | 22.78° C | 79% | 1018.4 hPa | 0 mm | - | 3 W/m² | - |
| 1787615952 | 23.33° C | 79% | 1018.3 hPa | 0 mm | - | 4 W/m² | - |
| 1787615647 | 23.33° C | 78% | 1018.3 hPa | 0 mm | - | 6 W/m² | - |
| 1787615342 | 22.78° C | 77% | 1018.4 hPa | 0 mm | - | 6 W/m² | - |
| 1787615038 | 23.33° C | 80% | 1018.6 hPa | 0 mm | - | 6 W/m² | - |
| 1787614734 | 23.89° C | 79% | 1018.5 hPa | 0 mm | - | 7 W/m² | - |
| 1787614431 | 23.33° C | 75% | 1018.3 hPa | 0 mm | - | 10 W/m² | - |
| 1787614127 | 23.33° C | 74% | 1018.7 hPa | 0 mm | - | 11 W/m² | - |
| 1787613823 | 23.33° C | 77% | 1018.8 hPa | 0 mm | - | 16 W/m² | - |
| 1787613519 | 23.89° C | 81% | 1018.7 hPa | 0 mm | - | 28 W/m² | - |
| 1787613213 | 24.44° C | 81% | 1018.8 hPa | 0 mm | - | 43 W/m² | - |
| 1787612910 | 25° C | 77% | 1018.7 hPa | 0 mm | - | 51 W/m² | - |
* Rain latest hour (hover to see other rain measurements)
** Current wind speed in m/s (hover to see current wind gust speed)